Weather History for Fairfield, IA

Change the Weather History Date:

Sunday, October 6, 2013

  Actual Average Record
Temperature  
Mean Temperature 44 °F -  
Max Temperature 50 °F 66 °F 87 °F (2007)
Min Temperature 37 °F 44 °F 29 °F (1988)
Degree Days  
Heating Degree Days 22    
Moisture  
Dew Point 39 °F    
Average Humidity 81    
Maximum Humidity 93    
Minimum Humidity 62    
Precipitation  
Precipitation 0.03 in - - ()
Sea Level Pressure  
Sea Level Pressure 29.80 in    
Wind  
Wind Speed 8 mph (WSW)    
Max Wind Speed 16 mph    
Max Gust Speed 21 mph    
Visibility 10 miles    
Events Rain    
Averages and records for this station are not official NWS values.
T = Trace of Precipitation, MM = Missing Value Source: NWS Daily Summary

Daily Weather History Graph

Daily Weather History Graph

Search for Another Location

Airport:

Trip Planner

Search our weather history database for the weather conditions in past years. The results will help you decide how hot, cold, wet, or windy it might be!

Date:

Astronomy

Oct. 06, 2013 Rise Set
Actual Time 7:10 AM CDT 6:41 PM CDT
Civil Twilight 6:42 AM CDT 7:08 PM CDT
Nautical Twilight 6:10 AM CDT 7:40 PM CDT
Astronomical Twilight 5:38 AM CDT 8:12 PM CDT
Moon 8:56 AM CDT (10/6) 7:39 PM CDT (10/6)
Length of Visible Light 12h 26m
Length of Day
11h 31m
Waxing Crescent, 3% of the Moon is Illuminated
Oct 6
Waxing Crescent
Oct 11
First Quarter
Oct 18
Full
Oct 26
Last Quarter
Nov 3
New

Hourly Weather History & Observations

Time (CDT) Temp. Windchill Dew Point Humidity Pressure Visibility Wind Dir Wind Speed Gust Speed Precip Events Conditions
12:15 AM 46.4 °F 43.5 °F 37.4 °F 71% 29.83 in 10.0 mi South 5.8 mph - N/A   Clear
12:35 AM 46.4 °F 42.9 °F 37.4 °F 71% 29.82 in 10.0 mi SSW 6.9 mph - N/A   Clear
12:55 AM 44.6 °F 40.7 °F 37.4 °F 76% 29.82 in 10.0 mi SSW 6.9 mph - N/A   Clear
1:15 AM 44.6 °F 40.2 °F 37.4 °F 76% 29.82 in 10.0 mi SW 8.1 mph - N/A   Clear
1:35 AM 44.6 °F 40.7 °F 37.4 °F 76% 29.81 in 10.0 mi SW 6.9 mph - N/A   Clear
1:55 AM 42.8 °F 38.6 °F 37.4 °F 81% 29.81 in 10.0 mi SW 6.9 mph - N/A   Clear
2:15 AM 42.8 °F 38.6 °F 37.4 °F 81% 29.81 in 10.0 mi SW 6.9 mph - N/A   Clear
2:35 AM 42.8 °F 38.6 °F 37.4 °F 81% 29.79 in 10.0 mi SW 6.9 mph 13.8 mph N/A   Clear
2:55 AM 42.8 °F 39.3 °F 37.4 °F 81% 29.79 in 10.0 mi SW 5.8 mph - N/A   Clear
3:15 AM 41.0 °F 37.1 °F 37.4 °F 87% 29.78 in 10.0 mi SW 5.8 mph - N/A   Clear
3:35 AM 41.0 °F 37.1 °F 35.6 °F 81% 29.78 in 10.0 mi SW 5.8 mph - N/A   Clear
3:55 AM 42.8 °F 38.6 °F 35.6 °F 76% 29.79 in 10.0 mi SW 6.9 mph - N/A   Clear
4:15 AM 41.0 °F 36.4 °F 35.6 °F 81% 29.79 in 10.0 mi SW 6.9 mph - N/A   Clear
4:35 AM 41.0 °F 37.1 °F 35.6 °F 81% 29.79 in 10.0 mi SW 5.8 mph - N/A   Clear
4:55 AM 41.0 °F 37.1 °F 35.6 °F 81% 29.79 in 10.0 mi SW 5.8 mph - N/A   Clear
5:15 AM 41.0 °F 37.1 °F 33.8 °F 76% 29.77 in 10.0 mi SSW 5.8 mph - N/A   Clear
5:35 AM 39.2 °F 34.2 °F 33.8 °F 81% 29.78 in 10.0 mi SW 6.9 mph - N/A   Clear
5:55 AM 39.2 °F 35.0 °F 33.8 °F 81% 29.78 in 10.0 mi SW 5.8 mph - N/A   Scattered Clouds
6:15 AM 39.2 °F 35.0 °F 33.8 °F 81% 29.78 in 10.0 mi SSW 5.8 mph - N/A   Partly Cloudy
6:35 AM 37.4 °F 33.8 °F 33.8 °F 87% 29.78 in 10.0 mi SW 4.6 mph - N/A   Clear
6:55 AM 37.4 °F 33.8 °F 33.8 °F 87% 29.78 in 10.0 mi SSW 4.6 mph - N/A   Clear
7:15 AM 37.4 °F 32.8 °F 33.8 °F 87% 29.78 in 10.0 mi SSW 5.8 mph - N/A   Clear
7:35 AM 37.4 °F 34.9 °F 33.8 °F 87% 29.78 in 10.0 mi SW 3.5 mph - N/A   Scattered Clouds
7:55 AM 41.0 °F 37.1 °F 35.6 °F 81% 29.79 in 10.0 mi SSW 5.8 mph - N/A   Overcast
8:15 AM 41.0 °F 38.0 °F 35.6 °F 81% 29.78 in 10.0 mi SW 4.6 mph - N/A   Overcast
8:35 AM 42.8 °F 40.1 °F 37.4 °F 81% 29.78 in 10.0 mi SW 4.6 mph - N/A   Overcast
8:55 AM 42.8 °F 38.0 °F 37.4 °F 81% 29.78 in 10.0 mi SW 8.1 mph - N/A   Overcast
9:15 AM 44.6 °F 40.2 °F 37.4 °F 76% 29.79 in 10.0 mi SW 8.1 mph - N/A   Overcast
9:35 AM 44.6 °F 39.7 °F 37.4 °F 76% 29.78 in 10.0 mi WSW 9.2 mph - N/A   Overcast
9:55 AM 46.4 °F 41.5 °F 37.4 °F 71% 29.78 in 10.0 mi SW 10.4 mph - N/A   Overcast
10:15 AM 46.4 °F 41.5 °F 37.4 °F 71% 29.79 in 10.0 mi SW 10.4 mph - N/A   Overcast
10:35 AM 46.4 °F 41.5 °F 37.4 °F 71% 29.79 in 10.0 mi WSW 10.4 mph 16.1 mph N/A   Overcast
10:55 AM 48.2 °F - 37.4 °F 66% 29.79 in 10.0 mi WSW 11.5 mph - N/A   Overcast
11:15 AM 48.2 °F - 37.4 °F 66% 29.79 in 10.0 mi WSW 8.1 mph - N/A   Overcast
11:35 AM 48.2 °F - 37.4 °F 66% 29.79 in 10.0 mi SW 12.7 mph - N/A   Overcast
11:55 AM 50.0 °F - 37.4 °F 62% 29.79 in 10.0 mi WSW 9.2 mph - N/A   Overcast
12:15 PM 48.2 °F - 37.4 °F 66% 29.79 in 10.0 mi WSW 12.7 mph - N/A   Overcast
12:35 PM 48.2 °F - 37.4 °F 66% 29.79 in 10.0 mi SW 10.4 mph - N/A   Overcast
12:55 PM 46.4 °F 42.4 °F 41.0 °F 81% 29.78 in 3.0 mi West 8.1 mph 13.8 mph N/A   Light Drizzle
1:15 PM 46.4 °F 41.1 °F 41.0 °F 81% 29.78 in 10.0 mi West 11.5 mph 20.7 mph N/A   Overcast
1:35 PM 48.2 °F - 41.0 °F 76% 29.77 in 10.0 mi West 10.4 mph - N/A   Overcast
1:55 PM 50.0 °F - 41.0 °F 71% 29.76 in 10.0 mi West 10.4 mph 17.3 mph N/A   Light Drizzle
2:15 PM 50.0 °F - 39.2 °F 66% 29.76 in 10.0 mi West 13.8 mph 20.7 mph N/A   Mostly Cloudy
2:35 PM 48.2 °F - 37.4 °F 66% 29.76 in 10.0 mi West 13.8 mph - N/A   Overcast
2:55 PM 50.0 °F - 37.4 °F 62% 29.76 in 10.0 mi WNW 13.8 mph - N/A   Mostly Cloudy
3:15 PM 48.2 °F - 39.2 °F 71% 29.77 in 10.0 mi West 12.7 mph - N/A   Overcast
3:35 PM 48.2 °F - 39.2 °F 71% 29.77 in 10.0 mi West 12.7 mph - N/A   Overcast
3:55 PM 48.2 °F - 39.2 °F 71% 29.77 in 10.0 mi West 16.1 mph - N/A   Overcast
4:15 PM 48.2 °F - 39.2 °F 71% 29.78 in 10.0 mi West 12.7 mph 19.6 mph N/A   Light Drizzle
4:35 PM 48.2 °F - 41.0 °F 76% 29.78 in 10.0 mi West 10.4 mph - N/A   Light Drizzle
4:55 PM 48.2 °F - 42.8 °F 82% 29.79 in 10.0 mi WSW 11.5 mph - N/A   Light Drizzle
5:15 PM 46.4 °F 42.4 °F 42.8 °F 87% 29.79 in 10.0 mi WSW 8.1 mph - N/A Rain Light Rain
5:35 PM 46.4 °F 42.4 °F 44.6 °F 93% 29.80 in 10.0 mi SW 8.1 mph - N/A   Light Drizzle
5:55 PM 46.4 °F 42.9 °F 44.6 °F 93% 29.80 in 10.0 mi WSW 6.9 mph - 0.02 in Rain Light Rain
6:15 PM 46.4 °F 42.9 °F 44.6 °F 93% 29.80 in 9.0 mi SW 6.9 mph - N/A   Light Drizzle
6:35 PM 46.4 °F 43.5 °F 44.6 °F 93% 29.80 in 10.0 mi SW 5.8 mph - N/A   Light Drizzle
6:55 PM 46.4 °F 43.5 °F 44.6 °F 93% 29.80 in 10.0 mi WSW 5.8 mph - 0.01 in   Overcast
7:15 PM 46.4 °F 42.9 °F 44.6 °F 93% 29.81 in 10.0 mi WSW 6.9 mph - N/A   Overcast
7:35 PM 46.4 °F 42.4 °F 44.6 °F 93% 29.81 in 10.0 mi WSW 8.1 mph - N/A   Overcast
7:55 PM 46.4 °F 42.4 °F 42.8 °F 87% 29.81 in 10.0 mi West 8.1 mph - N/A   Mostly Cloudy
8:15 PM 46.4 °F 42.9 °F 44.6 °F 93% 29.82 in 10.0 mi West 6.9 mph - N/A   Mostly Cloudy
8:35 PM 46.4 °F 42.4 °F 44.6 °F 93% 29.82 in 10.0 mi West 8.1 mph - N/A   Overcast
8:55 PM 46.4 °F 41.9 °F 44.6 °F 93% 29.83 in 10.0 mi West 9.2 mph - N/A   Overcast
9:15 PM 46.4 °F 41.5 °F 44.6 °F 93% 29.83 in 10.0 mi WNW 10.4 mph - N/A   Overcast
9:35 PM 46.4 °F 41.5 °F 44.6 °F 93% 29.84 in 10.0 mi West 10.4 mph - N/A   Overcast
9:55 PM 46.4 °F 42.4 °F 44.6 °F 93% 29.85 in 10.0 mi West 8.1 mph - N/A   Overcast
10:15 PM 46.4 °F 42.9 °F 44.6 °F 93% 29.85 in 10.0 mi WNW 6.9 mph - N/A   Overcast
10:35 PM 46.4 °F 41.9 °F 44.6 °F 93% 29.86 in 10.0 mi WNW 9.2 mph - N/A   Overcast
10:55 PM 48.2 °F - 44.6 °F 87% 29.87 in 10.0 mi West 8.1 mph - N/A   Overcast
11:15 PM 48.2 °F - 46.4 °F 93% 29.87 in 10.0 mi West 8.1 mph - N/A   Overcast
11:35 PM 48.2 °F - 46.4 °F 93% 29.86 in 10.0 mi WNW 9.2 mph - N/A   Overcast
11:55 PM 48.2 °F - 46.4 °F 93% 29.87 in 10.0 mi WNW 10.4 mph - N/A   Overcast